{"data":{"norad_id":57231,"epoch":"2026-05-25T04:37:15.901824Z","epoch_age_seconds":68625,"freshness":"FRESH","line1":"1 57231U 23094P   26145.19254516 -.00000964  00000+0 -25506-4 0  9999","line2":"2 57231  43.0036 318.8358 0001151 274.4474  85.6246 15.27578576158819","mean_motion":15.27578576,"eccentricity":0.0001151,"inclination_deg":43.0036,"raan_deg":318.8358,"arg_perigee_deg":274.4474,"mean_anomaly_deg":85.6246,"bstar":-2.5506e-5,"rev_number":15881,"period_min":94.266836588575,"perigee_km":482.26363700081,"apogee_km":483.84308302168,"semimajor_km":6861.1903600112,"source":"CELESTRAK","updated_at":"2026-05-25T13:38:18.254456Z"}}